sat.trackr.live / text

‹ back to catalog

ONEWEB-0177

NORAD 48074 · 2021-025AJ

PAYLOAD ACTIVE UNKNOWN

§ Identity

Operator
Country
UK
Launch date
2021-03-25
Launch site
VOSTO
Launch vehicle
Mass (kg)
RCS (m²)

Purposes: comms

External: N2YO · Heavens-Above · Gunter

§ Orbital elements

Epoch: 2026-09-14T21:52:09.979104Z

Period
109.63 min
Inclination
87.8924°
Eccentricity
0.0001710
Mean motion
13.13469420 rev/d
Perigee alt
1,208.5 km
Apogee alt
1,211.1 km
Semi-major
7,587.9 km
B*
-3.3035e-4
RAAN
302.3750°
Arg perigee
99.0832°
Mean anomaly
261.0491°
Rev number
26,545

§ Raw data

ONEWEB-01771 48074U 21025AJ  26257.91122661 -.00000108  00000+0 -33035-3 0  99902 48074  87.8924 302.3750 0001710  99.0832 261.0491 13.13469420265451

JSON: /api/v1/satellites/48074 · /tle

For live sub-satellite position, see the globe view (requires WebGL).

§ Visibility from observer

Set your observer location to see the next 7 days of passes ≥ 10°. The values pass through the URL so the page stays shareable.

No JS? Fill the form by hand. The geolocation button needs JavaScript.